Worcester, MA

10:30 PM EDT on April 19, 2018 (GMT -0400)
Worcester Regional

Weather History for KORH - November, 2012

Change the Weather History Date:

Monday, November 26, 2012

  Actual Average Record
Temperature  
Mean Temperature 36 °F 37 °F  
Max Temperature 42 °F 44 °F 64 °F (1895)
Min Temperature 29 °F 30 °F 3 °F (1938)
Degree Days  
Heating Degree Days 29 28  
Month to date heating degree days 633 623  
Since 1 July heating degree days 1132 1284  
Cooling Degree Days 0 0  
Month to date cooling degree days 0 0  
Year to date cooling degree days 674 471  
Moisture  
Dew Point 21 °F    
Average Humidity 56    
Maximum Humidity 72    
Minimum Humidity 40    
Precipitation  
Precipitation 0.00 in 0.13 in 2.19 in (1972)
Month to date precipitation 1.03 3.71  
Year to date precipitation 38.61 43.68  
Snow  
Snow 0.00 in 0.20 in 5.30 in (2014)
Month to date snowfall 6.4 1.9  
Since 1 July snowfall 6.4 2.1  
Since 1 September snowfall 6.4 2.1  
Snow Depth 0.00 in    
Sea Level Pressure  
Sea Level Pressure 30.05 in    
Wind  
Wind Speed 10 mph (West)    
Max Wind Speed 23 mph    
Max Gust Speed 32 mph    
Visibility 10 miles    
Events      
T = Trace of Precipitation, MM = Missing Value Source: NWS Daily Summary

Daily Weather History Graph

Daily Weather History Graph

Search for Another Location

Airport or City:

Astronomy

Nov. 26, 2012 Rise Set
Actual Time 6:51 AM EST 4:17 PM EST
Civil Twilight 6:20 AM EST 4:48 PM EST
Nautical Twilight 5:46 AM EST 5:23 PM EST
Astronomical Twilight 5:12 AM EST 5:57 PM EST
Moon 3:09 PM EST (11/26) 4:58 AM EST (11/26)
Length of Visible Light 10h 28m
Length of Day
9h 26m
Waxing Gibbous, 97% of the Moon is Illuminated
Nov 26
Waxing Gibbous
Nov 28
Full
Dec 6
Last Quarter
Dec 13
New
Dec 20
First Quarter

Hourly Weather History & Observations

Time (EST) Temp. Windchill Dew Point Humidity Pressure Visibility Wind Dir Wind Speed Gust Speed Precip Events Conditions
12:54 AM 30.0 °F 20.5 °F 21.0 °F 69% 29.87 in 10.0 mi WSW 11.5 mph - N/A   Mostly Cloudy
1:54 AM 30.0 °F 20.5 °F 21.0 °F 69% 29.88 in 10.0 mi WSW 11.5 mph - N/A   Mostly Cloudy
2:54 AM 30.9 °F 21.2 °F 21.0 °F 67% 29.89 in 10.0 mi WSW 12.7 mph - N/A   Overcast
3:54 AM 30.9 °F 21.7 °F 21.0 °F 67% 29.90 in 10.0 mi WSW 11.5 mph - N/A   Overcast
4:54 AM 30.0 °F 21.1 °F 21.0 °F 69% 29.91 in 10.0 mi WSW 10.4 mph - N/A   Clear
5:54 AM 30.0 °F 21.1 °F 21.0 °F 69% 29.92 in 10.0 mi WSW 10.4 mph - N/A   Mostly Cloudy
6:54 AM 30.0 °F 25.2 °F 21.0 °F 69% 29.95 in 10.0 mi WSW 4.6 mph - N/A   Mostly Cloudy
7:54 AM 32.0 °F 24.2 °F 21.0 °F 64% 29.98 in 10.0 mi WSW 9.2 mph - N/A   Clear
8:54 AM 35.1 °F 25.9 °F 21.9 °F 59% 29.98 in 10.0 mi West 13.8 mph 21.9 mph N/A   Partly Cloudy
9:54 AM 37.0 °F 28.1 °F 21.9 °F 54% 30.01 in 10.0 mi West 15.0 mph 24.2 mph N/A   Clear
10:54 AM 37.9 °F 28.5 °F 21.9 °F 53% 30.02 in 10.0 mi WNW 17.3 mph 27.6 mph N/A   Partly Cloudy
11:54 AM 39.9 °F 30.8 °F 21.0 °F 47% 30.02 in 10.0 mi WNW 18.4 mph 24.2 mph N/A   Scattered Clouds
12:54 PM 39.9 °F 32.9 °F 19.9 °F 45% 30.03 in 10.0 mi West 11.5 mph 25.3 mph N/A   Mostly Cloudy
1:54 PM 39.0 °F 31.0 °F 17.1 °F 41% 30.04 in 10.0 mi West 13.8 mph 27.6 mph N/A   Clear
2:54 PM 39.9 °F 31.4 °F 17.1 °F 40% 30.07 in 10.0 mi West 16.1 mph 32.2 mph N/A   Partly Cloudy
3:54 PM 39.0 °F 34.0 °F 18.0 °F 43% 30.09 in 10.0 mi West 6.9 mph - N/A   Clear
4:54 PM 36.0 °F 29.0 °F 19.0 °F 50% 30.12 in 10.0 mi WNW 9.2 mph - N/A   Clear
5:54 PM 35.1 °F 28.6 °F 21.0 °F 57% 30.15 in 10.0 mi West 8.1 mph - N/A   Clear
6:54 PM 33.1 °F 26.9 °F 21.9 °F 64% 30.18 in 10.0 mi WSW 6.9 mph - N/A   Clear
7:54 PM 30.9 °F 25.2 °F 21.9 °F 69% 30.20 in 10.0 mi WSW 5.8 mph - N/A   Clear
8:54 PM 30.9 °F 25.2 °F 23.0 °F 72% 30.22 in 10.0 mi West 5.8 mph - N/A   Clear
9:54 PM 30.0 °F 24.1 °F 21.9 °F 72% 30.22 in 10.0 mi WSW 5.8 mph - N/A   Clear
10:54 PM 30.0 °F 24.1 °F 21.9 °F 72% 30.24 in 10.0 mi West 5.8 mph - N/A   Clear
11:54 PM 30.0 °F 23.2 °F 21.9 °F 72% 30.24 in 10.0 mi West 6.9 mph - N/A   Clear